Simultaneous Nadir Overpasses (SNOs) Predictions

Prediction of SNOs between GOES-17 and AQUA Satellite Orbit:

Table of predicted SNOs for the next 14.0 days since TLE Epoch: 5/13/2023
Index Date Time (GOES-17) GOES-17 Lat,Lon AQUA Lat,Lon Distance(km) Time Diff (sec)
1 05/13/2023 08:55:28 0.00,-104.72 0.34,-106.44 194.47 80
2 05/15/2023 08:38:49 0.00,-104.73 -0.38,-103.02 193.98 80
3 05/15/2023 20:59:45 -0.00,-104.72 -0.71,-108.09 382.89 80
4 05/17/2023 20:48:25 -0.00,-104.73 0.00,-104.68 6.34 80
5 05/19/2023 20:34:25 -0.00,-104.74 0.76,-101.27 395.72 80
6 05/20/2023 08:55:12 0.00,-104.75 0.34,-106.30 176.10 80
7 05/22/2023 08:38:31 -0.01,-104.75 -0.41,-102.88 213.26 80
8 05/22/2023 20:59:25 0.01,-104.75 -0.69,-107.94 363.97 80
9 05/24/2023 20:48:03 0.02,-104.75 0.05,-104.52 26.04 80
10 05/26/2023 20:34:00 0.01,-104.76 0.78,-101.09 416.86 80
